Regional Weather Roundup
Issued by NWS

Home | Current Version | Previous Version | Graphics & Text | Print | Product List | Glossary On
Versions: 1 2 3 4 5 6 7 8 9 10 11 12 13 14 15 16 17 18 19 20 21 22 23 24 25 26 27 28 29 30 31 32 33 34 35 36 37 38 39 40 41 42 43 44 45 46 47 48 49 50
000
ASUS43 KDMX 260701
RWRIA

WEATHER ROUNDUP FOR IOWA
NATIONAL WEATHER SERVICE DES MOINES IA
200 AM CDT THU APR 26 2018

NOTE: "FAIR" INDICATES FEW OR NO CLOUDS BELOW 12,000 FEET WITH NO
SIGNIFICANT WEATHER AND/OR OBSTRUCTIONS TO VISIBILITY.

* - THESE STATIONS ARE NOT NWS STATIONS...THUS NOT UNDER NWS
QUALITY CONTROL.  THEY ALSO DO NOT REPORT WEATHER SUCH
AS PRECIPITATION OR FOG.

IAZ001>003-012>014-020>022-031>034-043>046-260800-
   NORTHWEST IOWA

CITY           SKY/WX    TMP DP  RH WIND       PRES   REMARKS
CARROLL *      CLOUDY    36  28  75 W7        29.96F WCI  30
CHEROKEE *     CLOUDY    37  33  84 CALM      29.96S
DENISON *      CLOUDY    39  32  75 CALM      29.98F
LE MARS *      CLOUDY    41  32  70 S5        29.96S
ORANGE CITY *  CLOUDY    45  32  61 CALM      29.95S
SHELDON *      CLOUDY    36  32  87 SE6       29.92F WCI  31
SIOUX CITY     CLOUDY    44  33  65 SW7       29.97R
SPENCER        CLOUDY    40  32  73 S5        29.95S
STORM LAKE *   CLOUDY    45  27  49 S7        29.96S
$$

IAZ055>058-069>071-079>083-090>094-260800-
   SOUTHWEST IOWA

CITY           SKY/WX    TMP DP  RH WIND       PRES   REMARKS
ATLANTIC *     CLOUDY    36  32  87 CALM      29.98F
AUDUBON *      CLOUDY    32  27  80 CALM      29.98F
CLARINDA *     CLOUDY    36  34  93 CALM      30.01F
COUNCIL BLFS * CLOUDY    45  37  76 SW7       29.98F
CRESTON *      CLEAR     39  36  87 W8        29.99F WCI  34
HARLAN  *      CLOUDY    37  32  81 CALM      30.01S
LAMONI         CLEAR     40  36  86 W7        29.97F
RED OAK *      CLOUDY    34  32  93 CALM      29.99F
SHENANDOAH *   CLOUDY    39  36  87 CALM      30.00F
$$

IAZ047>049-059>061-072>074-084-260800-
   CENTRAL IOWA

CITY           SKY/WX    TMP DP  RH WIND       PRES   REMARKS
AMES           CLOUDY    38  32  79 CALM      29.96F
ANKENY *       CLEAR     37  32  81 CALM      29.98F
BOONE *        CLOUDY    45  34  65 E5        29.95F
CHARITON *     CLEAR     43  32  65 W8        29.96F
DES MOINES     PTCLDY    47  31  53 CALM      29.98S
GRINNELL*      CLEAR     46  31  55 CALM      29.97F
KNOXVILLE *    CLEAR     43  28  56 W3        29.95F
MARSHALLTOWN   CLOUDY    38  31  76 CALM      29.96F
NEWTON *       CLEAR     46  32  57 NE6       29.96F
PELLA *        CLEAR     44  29  56 CALM      29.98F
$$

IAZ004>006-015-016-023>025-035-036-260800-
   NORTH CENTRAL IOWA

CITY           SKY/WX    TMP DP  RH WIND       PRES   REMARKS
ALGONA *       CLOUDY    43  37  81 S5        29.95F
CLARION *      PTCLDY    41  34  75 SE3       29.96F
ESTHERVILLE    CLOUDY    40  37  89 S7        29.94F
FORT DODGE *   CLOUDY    41  35  79 CALM      29.96F
MASON CITY     CLOUDY    40  36  86 CALM      29.96F
FOREST CITY *  FAIR      36  36 100 CALM      29.95F
WEBSTER CITY * CLOUDY    43  34  70 E5        29.94F
IOWA FALLS *   FAIR      38  34  84 CALM      29.97F
$$

IAZ007>011-017>019-026>030-037>042-050>054-066-260800-
   NORTHEAST IOWA

CITY           SKY/WX    TMP DP  RH WIND       PRES   REMARKS
CEDAR RAPIDS   FAIR      42  29  59 N6        29.95F
CHARLES CITY * FAIR      41  36  81 CALM      29.96F
CLINTON *      FAIR      41  33  73 SE7       29.98S
DECORAH *      CLOUDY    43  28  56 CALM      29.95S
DUBUQUE        FAIR      45  29  53 SE7       29.96F
MONTICELLO *   FAIR      36  30  80 CALM      29.95F
OELWEIN *      FAIR      43  34  70 NE3       29.96F
WATERLOO       FAIR      34  30  85 CALM      29.96F
$$

IAZ064-065-067-068-078-260800-
   EAST CENTRAL IOWA

CITY           SKY/WX    TMP DP  RH WIND       PRES   REMARKS
DAVENPORT      FAIR      41  33  73 SE10      29.99S
IOWA CITY      FAIR      41  31  67 CALM      29.97F
MT. PLEASANT * CLEAR     41  32  70 CALM      29.96S
MUSCATINE *    FAIR      41  32  70 CALM      29.96F
QUAD CITIES    FAIR      39  32  76 E6        29.97R WCI  35
$$

IAZ062-063-075>077-085>089-095>099-260800-
   SOUTHEAST IOWA

CITY           SKY/WX    TMP DP  RH WIND       PRES   REMARKS
BURLINGTON     CLEAR     44  35  70 W6        29.95F
FAIRFIELD *    CLEAR     39  25  56 NW8       29.95F WCI  34
FORT MADISON * CLEAR     48  39  71 CALM      29.96F
KEOKUK *       CLEAR     41  37  87 W5        29.95F
OSKALOOSA *    FAIR      41  28  59 NW7       29.97F
CENTERVILLE *  FAIR      37  30  75 CALM      29.98F
OTTUMWA        CLEAR     42  28  57 W7        29.96F
WASHINGTON *   CLEAR     43  28  56 NE5       29.96F
$$

ABBREVIATIONS USED IN REMARKS
   TC - TEMPERATURES IN CELSIUS
  WCI - WIND CHILL INDEX
   HX - HEAT INDEX
  VSB - VISIBILITY
$$





USA.gov is the U.S. government's official web portal to all federal, state and local government web resources and services.